{"data":{"norad_id":63735,"intl_designator":"2025-088M","name":"KUIPER-00020","alt_names":[],"object_type":"PAYLOAD","status":"ACTIVE","operator":null,"country":"US","launch_date":"2025-04-28","launch_site_code":"AFETR","launch_vehicle":null,"mission":null,"orbit_class":"UNKNOWN","rcs_meters":null,"size_class":null,"mass_kg":null,"dimensions":null,"purposes":[],"wikipedia_slug":null,"has_3d_model":false,"image_url":null,"decayed_at":null,"tle_current":{"epoch":"2026-09-21T10:06:41.834592Z","epoch_age_seconds":124925,"freshness":"FRESH","line1":"1 63735U 25088M   26264.42131753  .00000593  00000+0  10678-3 0  9994","line2":"2 63735  51.9040 317.5890 0000305  61.8458 298.2535 14.79931572 76643","mean_motion":14.79931572,"eccentricity":3.05e-5,"inclination_deg":51.904,"raan_deg":317.589,"arg_perigee_deg":61.8458,"mean_anomaly_deg":298.2535,"bstar":0.00010678,"rev_number":7664,"period_min":97.301796058987,"perigee_km":629.32640286808,"apogee_km":629.75387117344,"semimajor_km":7007.6771370208,"source":"CELESTRAK","updated_at":"2026-09-22T09:00:29.318110Z"}}}